STARLINK-32327, 61641

Orbit data source: Space-Track

STARLINK-32327, 61641 is a payload satellite owned by SpaceX/Seattle (US) in LEO that was launched on Wed, 23 Oct 2024 UTC via an FALCON 9 launch vehicle from the Air Force Eastern Test Range (AFETR). Payload-class satellites include a variety of spacecraft equipped with specific instruments for various scientific and technological missions. These include communications satellites like Starlink; space stations such as the ISS; scientific satellites like the Hubble; Earth observation satellites from companies like Planet Labs, Umbra, and HawkEye 360; GPS; miniature CubeSats for education and research; and military/defense satellites.

Loading next visibility...
Identifier
61641, 2024-191W
Orbit
LEO
Country
Flag of USUS
Related business
Manufacturer
SpaceX/Seattle
Mission
Operational Commercial Communications
Bus & Motor
STARLINK V2M, Unknown motor
Mass
730 kg wet, ~700 kg dry
Launch date (UTC)
2024-10-23 (11 months ago)
Launch vehicle
FALCON 9
Launch site
Air Force Eastern Test Range (AFETR)
Object type
Payload
Rocket body
Debris
Shape & HBR
Box + 2 Pan, 14.5 m
Radar Cross Section
36.964 m², Large (>1 m²)

Expand to show TLE details & history
Last TLE update: 2 days ago

TLE from 2 days ago
0 STARLINK-32327
1 61641U 24191W   25259.73036029 -.00000814  00000-0 -20070-4 0  9996
2 61641  43.0060  56.7473 0001604 268.4226  91.6442 15.27576315 50931
Epoch: 2025-09-16T17:31Z
TLE epoch observation values (Epoch: 2025-09-16T17:31:43.129Z)
Latitude
Longitude
157.90113°
Altitude
482.868 km
Speed
7.626 km/s
True Right ascension
03h 46m 59s
True Declination
0° 00' 00"
Sunlit
Object was in full shadow at epoch
Visualization orbit readout
Latitude
Unknown
Longitude
Unknown
Altitude
Unknown
Speed
Unknown
Apparent Right ascension
Unknown
Apparent Declination
Unknown
Sunlit
N/A
Visualization observer readout
Local Sidereal Time
22:24:59
Azimuth
Unknown
Elevation
Unknown
Doppler factor
Unknown
Orbital elements
Apogee altitude
486.105 km
Perigee altitude
483.903 km
Semi-major axis
6,863.141 km
Eccentricity
0.00016
Inclination
43.006°
RAAN
56.7473°
Arg. of periapsis
268.4226°
True anomaly
91.66257°
Mean anomaly
91.6442°
Eccentric anomaly
91.65339°
Mean motion
3.81732 °/min
Orbital period
94.31 mins
BSTAR
-0.00002007
Loading maneuver chart data...
Computing Atmospheric mass density...
Loading historical data...
Loading historical data...
Loading historical data...
Loading historical data...
Loading historical data...
Loading historical data...
Loading historical data...

Documentation

Showing up to 5 results
|